Printer-friendly version

IAU Minor Planet Center

Minor Planet Center

MPEC 2007-T34 : 2007 TD14

The following Minor Planet Electronic Circular may be linked-to from your own Web pages, but must not otherwise be redistributed electronically.


Read MPEC 2007-T33 Read MPEC 2007-T35


M.P.E.C. 2007-T34                                Issued 2007 Oct.  9, 03:31 UT

     The Minor Planet Electronic Circulars contain information on unusual
         minor planets and routine data on comets.  They are published
   on behalf of Commission 20 of the International Astronomical Union by the
          Minor Planet Center, Smithsonian Astrophysical Observatory,
                          Cambridge, MA 02138, U.S.A.

             Prepared using the Tamkin Foundation Computer Network

                              MPC@CFA.HARVARD.EDU
          URL http://www.cfa.harvard.edu/iau/mpc.html  ISSN 1523-6714

                                   2007 TD14

Observations:
     K07T14D  C2007 09 09.41733 03 00 50.79 +16 12 54.9          19.6 V ET034G96
     K07T14D  C2007 09 09.42172 03 00 50.90 +16 12 53.9          19.6 V ET034G96
     K07T14D  C2007 09 09.42610 03 00 51.01 +16 12 52.2          19.6 V ET034G96
     K07T14D  C2007 09 09.43057 03 00 51.12 +16 12 50.9          19.6 V ET034G96
     K07T14D* C2007 10 08.42007 02 53 39.48 +12 22 35.9          20.0 V ET034G96
     K07T14D  C2007 10 08.42719 02 53 39.04 +12 22 31.5          20.2 V ET034G96
     K07T14D  C2007 10 08.43417 02 53 38.65 +12 22 27.3          20.1 V ET034G96
     K07T14D  C2007 10 08.44091 02 53 38.22 +12 22 23.1          20.1 V ET034G96
     K07T14D  C2007 10 08.47569 02 53 36.16 +12 22 01.6          19.8 V ET034G96
     K07T14D  C2007 10 08.48276 02 53 35.73 +12 21 57.0          19.9 V ET034G96
     K07T14D  C2007 10 08.48988 02 53 35.34 +12 21 52.7          19.8 V ET034G96
     K07T14D  C2007 10 08.49690 02 53 34.90 +12 21 48.3          19.8 V ET034G96
     K07T14D  C2007 10 09.06403 02 53 03.50 +12 15 56.9          20.1 R ET034118
     K07T14D  C2007 10 09.06750 02 53 03.24 +12 15 55.0          20.0 R ET034118
     K07T14D  C2007 10 09.07096 02 53 03.07 +12 15 52.5          20.2 R ET034118

Observer details:
118 Modra.  Observer L. Kornos.  0.6-m f/5.5 reflector + CCD.
G96 Mt. Lemmon Survey.  Observers E. Beshore, R. A. Kowalski.  Measurers
    E. C. Beshore, A. Boattini, G. J. Garradd, A. R. Gibbs, A. D. Grauer,
    R. E. Hill, R. A. Kowalski, S. M. Larson, R. H. McNaught.  1.5-m reflector
    + CCD.

Orbital elements:
2007 TD14                                                Earth MOID = 0.2569 AU
Epoch 2007 Oct. 27.0 TT = JDT 2454400.5                 MPC
M  33.69307              (2000.0)            P               Q
n   0.27211861     Peri.  127.27243     +0.68397999     +0.72945073
a   2.3584711      Node   185.90523     -0.69284012     +0.64589603
e   0.4659751      Incl.    4.76392     -0.22835046     +0.22521090
P   3.62           H   18.6           G   0.15           U   7
Residuals in seconds of arc
070909 G96  0.2+  0.1+    071008 G96  0.1-  0.1-    071008 G96  0.3+  0.0
070909 G96  0.1+  0.3+    071008 G96  0.3+  0.1+    071008 G96  0.1-  0.0
070909 G96  0.1-  0.2-    071008 G96  0.1-  0.0     071009 118  0.3+  0.0
070909 G96  0.2-  0.2-    071008 G96  0.0   0.1+    071009 118  0.4-  0.2+
071008 G96  0.1+  0.1-    071008 G96  0.2-  0.1-    071009 118  0.1+  0.2-

Ephemeris:
2007 TD14                a,e,i = 2.36, 0.47, 5                   q = 1.2595
Date    TT    R. A. (2000) Decl.     Delta      r     Elong.  Phase     V
2007 10 07    02 54.94   +12 37.1    0.688    1.625   148.0    19.0    19.8
2007 10 17    02 44.73   +10 53.8    0.709    1.682   160.4    11.4    19.7
2007 10 27    02 33.07   +09 15.4    0.750    1.740   172.0     4.5    19.6
2007 11 06    02 22.12   +07 54.4    0.813    1.799   170.7     5.1    19.9
2007 11 16    02 13.57   +06 59.0    0.899    1.858   159.5    10.7    20.4
2007 11 26    02 08.35   +06 32.0    1.005    1.917   148.4    15.6    20.9
2007 12 06    02 06.63   +06 31.0    1.129    1.975   138.1    19.5    21.3
2007 12 16    02 08.15   +06 51.8    1.269    2.034   128.5    22.3    21.7

Sonia Keys                   (C) Copyright 2007 MPC           M.P.E.C. 2007-T34

Read MPEC 2007-T33 Read MPEC 2007-T35


Our Web policy. Index to the CBAT/MPC/ICQ pages.


Valid HTML 4.01!